Vertical_Velocity
-6 0 15 -4 3 2 0 -3 -4 5 1 -1 -1 -2 0 1 -0 0 1 -1 -1 -1 -1 -1 1 3 1 -0 1 -1 -1 -0 -4 -2 -1 -0 -2 -1
12 8 -3 12 1 -2 1 -2 -2 1 -4 3 1 -1 0 1 -0 -0 2 0 0 -2 -1 -0 1 1 2 1 -1 -2 1 0 -0 -0 -1 2 -3 -1
10 12 8 6 7 -1 -9 -1 -1 -2 -0 1 4 -4 2 -1 1 -2 1 0 -2 -1 1 -1 1 -1 1 0 -1 2 -1 1 1 1 1 -2 -4 0
11 17 10 -1 12 4 -3 3 -2 -3 -1 -1 0 -2 1 -1 0 -1 3 -2 -1 -2 -1 1 1 1 -2 1 0 -1 -1 -0 -0 -3 -3 -6 -2 -3
1 -2 4 7 0 11 2 -3 -1 -3 -1 1 -0 -2 -1 -2 1 0 2 -1 -2 0 5 -1 -1 1 1 -0 -1 -0 2 2 -1 1 -0 -5 -5 0
8 -0 -7 -3 9 4 -2 6 1 3 1 -3 -2 -1 1 -1 0 -1 4 -2 1 0 2 -2 -2 1 3 -1 1 -1 -0 1 1 -2 -3 -2 -3 -1
-5 5 -1 3 2 3 4 4 0 1 -1 1 4 2 1 1 -1 -1 -2 -0 -1 2 -1 -2 -2 3 1 1 -3 0 -0 1 2 -0 -3 -6 -2 -2
-3 3 0 -3 2 3 7 4 6 -1 -2 3 7 3 -2 -0 0 -1 -0 -0 1 -2 3 -4 -0 3 -0 -2 1 2 1 0 2 -2 -3 0 -1 -4
7 10 14 -8 2 -9 4 4 2 8 3 9 2 -2 -5 -1 -3 4 4 -0 4 -3 0 -1 -1 2 -1 -4 2 1 0 0 -3 -0 1 -2 -2 -6
9 7 10 4 3 5 -1 -3 8 6 -3 6 1 1 -7 -6 6 -2 3 2 2 -1 -4 -1 -0 1 3 -3 -4 1 2 2 0 1 1 -3 -5 -7
8 8 8 -4 0 10 -1 11 6 -3 11 4 -1 -4 -7 -2 -5 -0 8 -4 1 1 -3 2 -1 1 -3 -4 -1 1 0 -1 -3 1 -1 -3 -3 -0
10 8 6 3 1 -0 -2 4 -11 -3 4 9 4 -3 -0 -3 -4 -1 9 2 -1 -1 -2 5 -3 -1 -4 -3 -3 2 1 -2 3 1 -3 -0 3 -1
4 -5 5 7 9 1 4 -5 -4 15 4 9 -2 2 -7 -1 0 -3 1 5 1 2 -4 4 -3 -2 1 1 -7 -1 -1 -5 0 3 -3 -5 0 -0
-3 6 12 -2 14 12 0 -1 6 11 6 5 1 1 3 2 0 -7 -2 -1 3 -1 3 0 -5 -0 1 -4 -3 2 2 -5 -2 2 -1 -6 -2 -3
10 3 4 -1 0 12 10 6 11 -1 7 1 6 6 9 -3 -0 -1 0 -0 2 -1 -1 3 -3 -2 -2 -1 -5 -1 6 -3 -4 2 0 -3 3 -2
18 6 11 7 2 8 13 10 9 5 5 11 7 2 1 -17 7 0 -6 2 -1 -1 -5 -1 0 -1 -0 -3 -2 -2 -1 -3 -1 -1 0 0 2 -2
4 11 22 2 6 8 15 1 0 -1 0 1 5 -7 -9 3 2 3 -3 4 -7 -6 -6 -2 3 -1 -4 -2 -2 1 0 -1 -3 -3 -2 -1 2 -3
-10 -7 -30 12 7 13 -1 -1 0 -2 4 5 -2 -4 3 2 -1 -3 5 2 5 -8 -2 -2 3 1 -3 -2 -2 -2 3 -0 -6 4 -8 -1 4 -5
-3 -14 -8 1 14 2 -2 1 4 3 9 2 4 2 -6 -1 -4 -3 1 -2 2 -6 -2 5 -1 0 -4 -2 0 1 1 2 -5 1 -2 1 3 -9
-8 -4 -9 3 -9 22 13 3 4 -6 -6 1 -2 5 1 -1 -5 -5 0 -4 1 3 6 -3 -1 1 -2 -1 -2 2 -1 -4 2 -1 0 1 0 -5
8 -6 20 1 7 17 5 9 11 8 4 -5 -2 -4 2 1 2 7 -0 4 -2 6 -4 -4 -1 -2 -1 0 1 2 -2 -3 3 2 -2 -4 -15 -10
10 -12 9 19 6 3 0 14 -3 9 -2 -4 -1 -6 -2 -3 -4 1 3 4 -3 4 -6 5 -1 -4 -3 3 -2 1 -2 -2 1 1 0 -3 -8 -9
33 -0 3 18 10 -8 16 1 11 4 -3 -3 3 -0 0 2 0 -0 -2 2 -2 -2 1 7 -5 1 -7 3 1 -1 -4 -0 2 3 -3 -4 -8 1
Height
5737 5748 5757 5766 5775 5783 5789 5793 5798 5804 5812 5816 5821 5825 5828 5832 5834 5835 5838 5837 5837 5835 5832 5829 5827 5825 5822 5819 5815 5811 5808 5802 5796 5788 5783 5776 5768 5761
5725 5732 5743 5752 5759 5767 5776 5781 5787 5795 5800 5806 5813 5816 5820 5824 5826 5828 5830 5829 5829 5827 5824 5822 5819 5817 5815 5812 5808 5805 5801 5795 5789 5783 5778 5771 5763 5754
5709 5719 5728 5738 5745 5753 5760 5768 5776 5783 5790 5796 5802 5807 5811 5815 5817 5820 5821 5820 5821 5819 5818 5815 5812 5810 5808 5805 5801 5798 5794 5789 5783 5779 5773 5765 5756 5748
5697 5706 5715 5725 5734 5742 5751 5758 5764 5772 5779 5785 5792 5797 5802 5806 5809 5811 5812 5812 5813 5811 5810 5808 5805 5803 5801 5799 5796 5792 5788 5785 5779 5773 5768 5760 5751 5741
5682 5692 5703 5713 5722 5730 5740 5748 5753 5762 5769 5777 5782 5788 5793 5797 5799 5801 5803 5803 5804 5802 5803 5801 5798 5795 5796 5793 5790 5788 5784 5780 5774 5767 5761 5754 5745 5735
5667 5677 5687 5697 5709 5719 5727 5734 5743 5749 5756 5763 5771 5777 5782 5786 5789 5792 5794 5794 5795 5796 5795 5795 5793 5791 5790 5788 5787 5783 5780 5775 5770 5762 5755 5747 5739 5729
5655 5663 5674 5688 5696 5705 5714 5723 5731 5738 5745 5751 5760 5766 5772 5776 5780 5781 5784 5786 5789 5789 5790 5789 5787 5786 5785 5784 5782 5778 5774 5770 5763 5755 5749 5742 5734 5724
5640 5649 5659 5673 5682 5691 5701 5710 5719 5727 5735 5743 5749 5754 5761 5766 5768 5772 5776 5780 5782 5781 5782 5782 5782 5782 5781 5779 5776 5772 5768 5762 5757 5750 5743 5735 5727 5719
5625 5636 5645 5657 5667 5677 5688 5697 5707 5715 5723 5730 5736 5743 5748 5754 5756 5763 5769 5773 5775 5775 5776 5775 5776 5777 5776 5773 5769 5766 5762 5757 5752 5747 5739 5730 5722 5715
5609 5619 5633 5643 5654 5665 5673 5683 5694 5704 5712 5720 5727 5731 5738 5742 5750 5755 5762 5764 5767 5768 5770 5770 5771 5771 5770 5768 5764 5760 5757 5752 5747 5743 5734 5725 5718 5710
5593 5604 5618 5629 5642 5652 5661 5671 5681 5693 5700 5707 5714 5721 5728 5737 5742 5748 5754 5757 5760 5762 5763 5764 5765 5764 5764 5762 5759 5755 5751 5747 5742 5738 5731 5722 5714 5708
5580 5590 5603 5617 5625 5638 5648 5660 5671 5683 5691 5697 5704 5713 5722 5728 5733 5738 5745 5748 5752 5755 5756 5757 5759 5759 5757 5755 5752 5749 5745 5741 5738 5733 5727 5719 5712 5707
5562 5577 5592 5605 5613 5624 5635 5648 5663 5672 5678 5686 5693 5701 5711 5717 5724 5730 5736 5739 5744 5747 5749 5752 5753 5752 5751 5748 5746 5743 5739 5736 5732 5726 5720 5716 5712 5708
5546 5564 5578 5593 5603 5612 5623 5638 5648 5656 5663 5673 5683 5692 5700 5707 5713 5720 5727 5732 5736 5739 5741 5744 5745 5745 5743 5741 5740 5737 5734 5732 5727 5722 5715 5713 5711 5704
5532 5550 5563 5579 5591 5599 5612 5623 5631 5642 5651 5662 5672 5681 5688 5693 5702 5711 5719 5724 5727 5731 5735 5736 5738 5737 5737 5735 5733 5731 5729 5727 5722 5717 5714 5712 5706 5697
5518 5535 5546 5560 5572 5585 5596 5605 5617 5629 5642 5652 5661 5668 5675 5685 5695 5703 5709 5714 5718 5724 5728 5729 5729 5729 5729 5729 5726 5724 5723 5721 5716 5714 5713 5710 5704 5696
5485 5508 5521 5535 5550 5562 5576 5589 5603 5616 5628 5638 5651 5658 5666 5676 5685 5692 5698 5706 5709 5715 5719 5721 5721 5722 5722 5721 5720 5719 5717 5714 5712 5710 5709 5705 5700 5692
5456 5483 5497 5518 5533 5547 5563 5576 5593 5606 5617 5626 5636 5647 5659 5668 5675 5683 5690 5696 5700 5705 5709 5712 5714 5715 5715 5714 5714 5712 5711 5708 5708 5706 5704 5701 5697 5688
5435 5468 5486 5502 5517 5532 5548 5567 5585 5595 5606 5615 5625 5636 5648 5660 5666 5673 5680 5686 5692 5696 5699 5703 5706 5707 5708 5708 5707 5707 5706 5704 5704 5702 5698 5696 5691 5683
5418 5454 5473 5492 5502 5517 5535 5555 5569 5582 5591 5603 5614 5625 5636 5647 5656 5664 5671 5676 5681 5686 5691 5695 5698 5700 5701 5700 5701 5701 5700 5700 5699 5697 5694 5691 5688 5680
5404 5434 5458 5476 5488 5507 5524 5540 5555 5564 5578 5592 5604 5616 5626 5635 5644 5651 5658 5664 5671 5678 5683 5687 5690 5692 5693 5693 5693 5695 5696 5696 5694 5692 5688 5685 5681 5675
5387 5414 5442 5460 5476 5493 5510 5524 5540 5548 5564 5579 5592 5605 5616 5625 5633 5641 5649 5657 5663 5670 5673 5676 5681 5684 5685 5687 5687 5689 5689 5691 5690 5689 5685 5681 5674 5670
5372 5394 5419 5438 5460 5478 5493 5511 5524 5539 5553 5568 5577 5591 5602 5612 5621 5631 5641 5648 5654 5660 5665 5668 5671 5676 5678 5679 5681 5682 5684 5686 5686 5686 5682 5677 5671 5667